Weather History for Palmdale, CA

Change the Weather History Date:

Sunday, March 24, 2013

  Actual Average Record
Temperature  
Mean Temperature 57 °F 54 °F  
Max Temperature 74 °F 68 °F 84 °F (1956)
Min Temperature 40 °F 40 °F 27 °F (1933)
Degree Days  
Heating Degree Days 8 11  
Month to date heating degree days 183 299  
Since 1 July heating degree days 2387 2544  
Cooling Degree Days 0 0  
Month to date cooling degree days 6 0  
Year to date cooling degree days 6 0  
Growing Degree Days 7 (Base 50)    
Moisture  
Dew Point 15 °F    
Average Humidity 24    
Maximum Humidity 38    
Minimum Humidity 9    
Precipitation  
Precipitation 0.00 in 0.02 in 0.56 in (1983)
Month to date precipitation 0.25 1.04  
Year to date precipitation 0.71 4.33  
Since 1 July precipitation 1.00 7.31  
Snow  
Snow 0.00 in - 0.00 in (1974)
Month to date snowfall 0.0  
Since 1 July snowfall 0.0  
Snow Depth 0.00 in    
Sea Level Pressure  
Sea Level Pressure 29.99 in    
Wind  
Wind Speed 7 mph (SW)    
Max Wind Speed 20 mph    
Max Gust Speed 23 mph    
Visibility 10 miles    
Events      
T = Trace of Precipitation, MM = Missing Value Source: NWS Daily Summary

Daily Weather History Graph

Daily Weather History Graph

Search for Another Location

Airport:

Trip Planner

Search our weather history database for the weather conditions in past years. The results will help you decide how hot, cold, wet, or windy it might be!

Date:

Astronomy

Mar. 24, 2013 Rise Set
Actual Time 6:49 AM PDT 7:07 PM PDT
Civil Twilight 6:24 AM PDT 7:32 PM PDT
Nautical Twilight 5:55 AM PDT 8:02 PM PDT
Astronomical Twilight 5:25 AM PDT 8:32 PM PDT
Moon 4:45 PM PDT (3/24) 4:57 AM PDT (3/24)
Length of Visible Light 13h 07m
Length of Day
12h 17m
Waxing Gibbous, 92% of the Moon is Illuminated
Mar 24
Waxing Gibbous
Mar 27
Full
Apr 2
Last Quarter
Apr 10
New
Apr 18
First Quarter

Hourly Weather History & Observations

Time (PDT) Temp. Windchill Dew Point Humidity Pressure Visibility Wind Dir Wind Speed Gust Speed Precip Events Conditions
12:53 AM 54.0 °F - 5.0 °F 14% 30.00 in 10.0 mi Calm Calm - N/A   Clear
1:53 AM 52.0 °F - 15.1 °F 23% 29.97 in 10.0 mi WSW 10.4 mph - N/A   Clear
2:53 AM 48.0 °F - 17.1 °F 29% 29.98 in 10.0 mi Calm Calm - N/A   Clear
3:53 AM 45.0 °F 43.5 °F 19.9 °F 37% 29.99 in 10.0 mi SSW 3.5 mph - N/A   Clear
4:53 AM 44.1 °F 42.5 °F 19.0 °F 37% 29.99 in 10.0 mi South 3.5 mph - N/A   Clear
5:53 AM 42.1 °F 37.1 °F 16.0 °F 35% 30.01 in 10.0 mi SSW 8.1 mph - N/A   Clear
6:53 AM 41.0 °F 37.1 °F 10.9 °F 29% 30.03 in 10.0 mi SSW 5.8 mph - N/A   Clear
7:53 AM 46.9 °F - 10.9 °F 23% 30.04 in 10.0 mi SSW 5.8 mph - N/A   Clear
8:36 AM 53.6 °F - 12.2 °F 19% 30.08 in 1.5 mi SSW 3.5 mph - N/A   Haze
8:44 AM 53.6 °F - 10.4 °F 18% 30.08 in 10.0 mi SW 3.5 mph - N/A   Clear
8:53 AM 55.0 °F - 10.9 °F 17% 30.06 in 10.0 mi Calm Calm - N/A   Clear
9:53 AM 57.9 °F - 18.0 °F 21% 30.06 in 10.0 mi East 4.6 mph - N/A   Clear
10:53 AM 62.1 °F - 12.9 °F 15% 30.05 in 10.0 mi NNE 10.4 mph - N/A   Clear
11:53 AM 64.9 °F - 7.0 °F 10% 30.02 in 10.0 mi NE 4.6 mph - N/A   Clear
12:53 PM 68.0 °F - 7.0 °F 9% 30.01 in 10.0 mi NNE 8.1 mph - N/A   Clear
1:53 PM 69.1 °F - 8.1 °F 9% 29.98 in 10.0 mi Variable 3.5 mph - N/A   Clear
2:53 PM 70.0 °F - 9.0 °F 9% 29.96 in 10.0 mi Variable 3.5 mph - N/A   Clear
3:53 PM 72.0 °F - 10.0 °F 9% 29.94 in 10.0 mi WNW 5.8 mph - N/A   Clear
4:53 PM 72.0 °F - 10.9 °F 10% 29.92 in 10.0 mi Variable 3.5 mph - N/A   Clear
5:53 PM 73.9 °F - 12.9 °F 10% 29.90 in 10.0 mi Calm Calm - N/A   Clear
6:53 PM 70.0 °F - 23.0 °F 17% 29.91 in 10.0 mi WNW 15.0 mph - N/A   Clear
7:53 PM 66.0 °F - 24.1 °F 20% 29.93 in 10.0 mi WNW 17.3 mph - N/A   Clear
8:53 PM 63.0 °F - 25.0 °F 24% 29.94 in 10.0 mi WNW 15.0 mph - N/A   Clear
9:53 PM 59.0 °F - 23.0 °F 25% 29.95 in 10.0 mi SSE 6.9 mph - N/A   Clear
10:53 PM 55.9 °F - 21.9 °F 27% 29.96 in 10.0 mi SW 5.8 mph - N/A   Clear
11:53 PM 52.0 °F - 26.1 °F 37% 29.95 in 10.0 mi South 9.2 mph - N/A   Clear